Location: Gaast
(52.9002°N, 5.8891°E)
Time: 14:15:37
(UTC+00:00)

Cosmos 2251 Rocket - Visible Passes

Search period start: 14 February 2026 00:00
Search period end: 24 February 2026 00:00
Orbit: 762 x 787 km, 74.0° (Epoch: 13 February)

Date Brightness Start Highest point End Pass type
(mag) Time Alt. Az. Time Alt. Az. Time Alt. Az.
14 Feb 6.4 01:48:14 11° NNE 01:48:14 11° NNE 01:48:28 10° NNE visible
14 Feb 5.7 03:28:36 15° N 03:28:36 15° N 03:30:07 10° N visible
15 Feb 5.9 02:53:57 15° N 02:53:57 15° N 02:55:06 10° N visible
16 Feb 6.1 02:19:17 14° N 02:19:17 14° N 02:20:01 10° NNE visible
16 Feb 5.8 03:59:40 11° NNW 03:59:40 11° NNW 04:00:51 10° N visible
17 Feb 6.4 01:44:36 12° NNE 01:44:36 12° NNE 01:44:54 10° NNE visible
17 Feb 5.9 03:24:59 13° NNW 03:24:59 13° NNW 03:26:11 10° N visible
18 Feb 6.0 02:50:17 13° N 02:50:17 13° N 02:51:17 10° N visible
19 Feb 6.1 02:15:35 13° N 02:15:35 13° N 02:16:17 10° N visible
20 Feb 6.4 01:40:52 12° NNE 01:40:52 12° NNE 01:41:14 10° NNE visible
20 Feb 6.0 03:21:14 11° NNW 03:21:14 11° NNW 03:21:50 10° N visible
21 Feb 6.1 02:46:31 12° N 02:46:31 12° N 02:47:18 10° N visible
22 Feb 6.2 02:11:46 12° N 02:11:46 12° N 02:12:27 10° N visible
23 Feb 6.3 01:37:01 12° N 01:37:01 12° N 01:37:29 10° N visible
